Weather History for KCVX - November, 2012

Change the Weather History Date:

Thursday, November 22, 2012

  Actual Average Record
Temperature  
Mean Temperature 56 °F -  
Max Temperature 64 °F 37 °F 64 °F (2012)
Min Temperature 49 °F 27 °F 19 °F (2001)
Degree Days  
Heating Degree Days 8    
Growing Degree Days 6 (Base 50)    
Moisture  
Dew Point 39 °F    
Average Humidity 53    
Maximum Humidity 71    
Minimum Humidity 33    
Precipitation  
Precipitation 0.00 in - - ()
Sea Level Pressure  
Sea Level Pressure 29.80 in    
Wind  
Wind Speed 13 mph (SSW)    
Max Wind Speed 23 mph    
Max Gust Speed 33 mph    
Visibility 10 miles    
Events      
Averages and records for this station are not official NWS values.
T = Trace of Precipitation, MM = Missing Value Source: NWS Daily Summary

Daily Weather History Graph

Daily Weather History Graph

Search for Another Location

Airport or City:

Trip Planner

Search our weather history database for the weather conditions in past years. The results will help you decide how hot, cold, wet, or windy it might be!

Date:

Astronomy

Nov. 22, 2012 Rise Set
Actual Time 7:49 AM EST 5:04 PM EST
Civil Twilight 7:16 AM EST 5:37 PM EST
Nautical Twilight 6:40 AM EST 6:13 PM EST
Astronomical Twilight 6:05 AM EST 6:48 PM EST
Moon 2:02 PM EST (11/22) 1:54 AM EST (11/22)
Length of Visible Light 10h 20m
Length of Day
9h 15m
Waxing Gibbous, 71% of the Moon is Illuminated
Nov 22
Waxing Gibbous
Nov 28
Full
Dec 6
Last Quarter
Dec 13
New
Dec 20
First Quarter

Hourly Weather History & Observations

Time (EST) Temp. Dew Point Humidity Pressure Visibility Wind Dir Wind Speed Gust Speed Precip Events Conditions
12:15 AM 49.1 °F 38.3 °F 66% 29.99 in 10.0 mi SSW 10.4 mph - N/A   Clear
12:35 AM 49.3 °F 38.5 °F 66% 29.99 in 10.0 mi SSW 8.1 mph - N/A   Clear
12:55 AM 50.0 °F 38.7 °F 65% 29.98 in 10.0 mi SSW 11.5 mph 21.9 mph N/A   Clear
1:15 AM 50.2 °F 39.2 °F 66% 29.97 in 10.0 mi SSW 15.0 mph 23.0 mph N/A   Clear
1:35 AM 50.4 °F 39.2 °F 66% 29.97 in 10.0 mi SSW 11.5 mph 20.7 mph N/A   Clear
1:55 AM 50.4 °F 39.7 °F 67% 29.97 in 7.0 mi SSW 15.0 mph 19.6 mph N/A   Clear
2:14 AM 50.2 °F 40.1 °F 68% 29.97 in 7.0 mi SSW 12.7 mph 20.7 mph N/A   Clear
2:35 AM 49.6 °F 40.3 °F 70% 29.97 in 7.0 mi SSW 13.8 mph 18.4 mph N/A   Clear
2:55 AM 50.2 °F 40.1 °F 68% 29.97 in 7.0 mi SSW 12.7 mph 18.4 mph N/A   Clear
3:15 AM 50.4 °F 39.9 °F 67% 29.97 in 10.0 mi SSW 12.7 mph 18.4 mph N/A   Clear
3:35 AM 50.4 °F 39.6 °F 66% 29.96 in 10.0 mi SSW 10.4 mph 17.3 mph N/A   Clear
3:54 AM 50.4 °F 39.2 °F 66% 29.95 in 10.0 mi SSW 11.5 mph 17.3 mph N/A   Clear
4:15 AM 50.4 °F 38.8 °F 65% 29.94 in 10.0 mi SSW 11.5 mph 17.3 mph N/A   Clear
4:35 AM 50.9 °F 38.7 °F 63% 29.94 in 10.0 mi SSW 11.5 mph 17.3 mph N/A   Clear
4:55 AM 50.9 °F 38.5 °F 62% 29.93 in 10.0 mi SSW 11.5 mph 19.6 mph N/A   Clear
5:15 AM 50.9 °F 38.3 °F 62% 29.93 in 10.0 mi SSW 12.7 mph 21.9 mph N/A   Clear
5:35 AM 50.9 °F 38.3 °F 62% 29.93 in 10.0 mi SSW 12.7 mph 19.6 mph N/A   Clear
5:55 AM 51.1 °F 37.9 °F 61% 29.92 in 10.0 mi SSW 11.5 mph 19.6 mph N/A   Clear
6:15 AM 50.9 °F 37.9 °F 61% 29.92 in 10.0 mi South 13.8 mph - N/A   Clear
6:35 AM 50.9 °F 37.6 °F 60% 29.91 in 10.0 mi South 11.5 mph 18.4 mph N/A   Clear
6:55 AM 51.4 °F 37.2 °F 58% 29.90 in 10.0 mi South 11.5 mph 21.9 mph N/A   Clear
7:15 AM 50.9 °F 36.9 °F 59% 29.89 in 10.0 mi South 11.5 mph 17.3 mph N/A   Clear
7:35 AM 50.9 °F 36.9 °F 59% 29.89 in 10.0 mi South 12.7 mph 18.4 mph N/A   Clear
7:55 AM 51.3 °F 36.7 °F 57% 29.89 in 10.0 mi South 9.2 mph - N/A   Clear
8:15 AM 52.0 °F 36.7 °F 56% 29.88 in 10.0 mi South 12.7 mph 24.2 mph N/A   Clear
8:35 AM 52.7 °F 36.7 °F 55% 29.88 in 10.0 mi South 15.0 mph 20.7 mph N/A   Clear
8:55 AM 53.6 °F 36.7 °F 53% 29.87 in 10.0 mi South 16.1 mph 25.3 mph N/A   Clear
9:15 AM 54.1 °F 36.7 °F 52% 29.87 in 10.0 mi South 17.3 mph 25.3 mph N/A   Clear
9:35 AM 54.9 °F 36.7 °F 50% 29.87 in 10.0 mi South 13.8 mph 23.0 mph N/A   Clear
9:55 AM 56.5 °F 36.5 °F 47% 29.85 in 10.0 mi South 16.1 mph 27.6 mph N/A   Clear
10:15 AM 57.2 °F 36.5 °F 46% 29.85 in 10.0 mi SSW 21.9 mph 28.8 mph N/A   Clear
10:35 AM 58.6 °F 36.5 °F 44% 29.84 in 10.0 mi SSW 13.8 mph 24.2 mph N/A   Clear
10:55 AM 59.5 °F 36.3 °F 42% 29.84 in 10.0 mi South 13.8 mph 31.1 mph N/A   Clear
11:15 AM 60.3 °F 36.3 °F 41% 29.83 in 10.0 mi South 17.3 mph 26.5 mph N/A   Clear
11:35 AM 60.8 °F 36.9 °F 41% 29.82 in 10.0 mi SSW 13.8 mph 31.1 mph N/A   Clear
11:55 AM 61.2 °F 37.2 °F 41% 29.81 in 10.0 mi SSW 19.6 mph 28.8 mph N/A   Clear
12:15 PM 61.2 °F 37.4 °F 41% 29.81 in 10.0 mi South 18.4 mph 28.8 mph N/A   Clear
12:35 PM 61.9 °F 37.8 °F 41% 29.79 in 10.0 mi South 19.6 mph 27.6 mph N/A   Clear
12:55 PM 62.1 °F 37.4 °F 40% 29.78 in 10.0 mi South 17.3 mph 29.9 mph N/A   Clear
1:13 PM 62.6 °F 37.4 °F 39% 29.76 in 10.0 mi South 23.0 mph 31.1 mph N/A   Clear
1:35 PM 63.7 °F 37.0 °F 37% 29.74 in 10.0 mi South 21.9 mph 32.2 mph N/A   Clear
1:55 PM 63.7 °F 36.5 °F 36% 29.73 in 10.0 mi SSW 21.9 mph 31.1 mph N/A   Clear
2:15 PM 64.2 °F 35.8 °F 35% 29.73 in 10.0 mi SSW 11.5 mph 29.9 mph N/A   Clear
2:35 PM 64.9 °F 35.4 °F 33% 29.71 in 10.0 mi South 16.1 mph 27.6 mph N/A   Clear
2:55 PM 64.9 °F 35.4 °F 33% 29.70 in 10.0 mi SSW 18.4 mph 33.4 mph N/A   Clear
3:15 PM 64.8 °F 35.8 °F 34% 29.70 in 10.0 mi South 12.7 mph 28.8 mph N/A   Clear
3:35 PM 64.4 °F 36.0 °F 35% 29.69 in 10.0 mi South 11.5 mph 23.0 mph N/A   Clear
3:55 PM 63.7 °F 36.7 °F 37% 29.69 in 10.0 mi South 9.2 mph 21.9 mph N/A   Clear
4:15 PM 62.6 °F 36.9 °F 38% 29.69 in 10.0 mi South 11.5 mph 19.6 mph N/A   Clear
4:35 PM 61.9 °F 37.2 °F 40% 29.69 in 10.0 mi South 9.2 mph 16.1 mph N/A   Clear
4:55 PM 61.9 °F 36.9 °F 39% 29.69 in 10.0 mi SSW 11.5 mph - N/A   Mostly Cloudy
5:15 PM 61.7 °F 36.7 °F 39% 29.70 in 10.0 mi SSW 8.1 mph - N/A   Mostly Cloudy
5:34 PM 61.3 °F 37.2 °F 41% 29.70 in 10.0 mi SSW 10.4 mph 17.3 mph N/A   Overcast
5:55 PM 61.3 °F 38.1 °F 42% 29.70 in 10.0 mi SSW 11.5 mph 21.9 mph N/A   Overcast
6:14 PM 60.8 °F 38.5 °F 44% 29.70 in 10.0 mi SSW 15.0 mph 19.6 mph N/A   Overcast
6:35 PM 60.3 °F 39.2 °F 46% 29.69 in 10.0 mi SSW 13.8 mph 23.0 mph N/A   Overcast
6:54 PM 59.5 °F 39.7 °F 48% 29.69 in 10.0 mi SSW 15.0 mph 24.2 mph N/A   Overcast
7:15 PM 59.2 °F 40.3 °F 50% 29.69 in 10.0 mi SSW 12.7 mph 21.9 mph N/A   Overcast
7:35 PM 59.0 °F 41.0 °F 51% 29.68 in 10.0 mi SSW 16.1 mph 24.2 mph N/A   Overcast
7:54 PM 58.6 °F 41.4 °F 53% 29.67 in 10.0 mi SSW 12.7 mph 20.7 mph N/A   Overcast
8:15 PM 58.3 °F 42.1 °F 55% 29.67 in 10.0 mi SSW 15.0 mph 20.7 mph N/A   Overcast
8:34 PM 58.1 °F 42.8 °F 57% 29.66 in 10.0 mi SSW 13.8 mph 23.0 mph N/A   Overcast
8:55 PM 58.1 °F 43.2 °F 58% 29.65 in 10.0 mi SSW 12.7 mph 24.2 mph N/A   Overcast
9:15 PM 58.1 °F 43.3 °F 58% 29.64 in 10.0 mi SSW 16.1 mph 24.2 mph N/A   Overcast
9:35 PM 58.1 °F 43.7 °F 59% 29.63 in 10.0 mi SSW 13.8 mph 25.3 mph N/A   Overcast
9:55 PM 58.1 °F 44.1 °F 60% 29.62 in 10.0 mi SSW 12.7 mph 24.2 mph N/A   Overcast
10:15 PM 57.9 °F 44.6 °F 61% 29.62 in 10.0 mi SSW 17.3 mph 24.2 mph N/A   Overcast
10:35 PM 57.6 °F 45.0 °F 63% 29.61 in 10.0 mi SSW 12.7 mph 20.7 mph N/A   Overcast
10:55 PM 57.2 °F 45.5 °F 65% 29.61 in 10.0 mi SSW 12.7 mph 18.4 mph N/A   Overcast
11:14 PM 57.2 °F 46.4 °F 67% 29.60 in 10.0 mi SSW 12.7 mph 23.0 mph N/A   Overcast
11:35 PM 56.7 °F 46.9 °F 70% 29.58 in 10.0 mi SSW 11.5 mph 20.7 mph N/A   Overcast
11:54 PM 56.5 °F 47.3 °F 71% 29.57 in 10.0 mi SSW 12.7 mph 18.4 mph N/A   Overcast